Showing default

LAGEOS 1, 8820

Orbit data source: Space-Track

LAGEOS 1, 8820 is a payload satellite owned by NASA MSFC (US) that was launched on Tue, 04 May 1976 UTC via a DELTA 2913 launch vehicle from the Air Force Western Test Range (AFWTR). Payload-class satellites include a variety of spacecraft equipped with specific instruments for various scientific and technological missions. These include communications satellites like Starlink; space stations such as the ISS; scientific satellites like the Hubble; Earth observation satellites from companies like Planet Labs, Umbra, and HawkEye 360; GPS; miniature CubeSats for education and research; and military/defense satellites.

Loading next visibility...
Identifier
8820, 1976-039A
Orbit
Active
Country
Flag of USUS
Related business
Manufacturer
Bendix
Mission
Operational spacecraft
Bus & Motor
LAGEOS, Unknown motor
Mass
411 kg wet, 411 kg dry
Launch date (UTC)
Icon of a cake. It is the launch day of the satellite!1976-05-04 (50 years ago)
Launch vehicle
DELTA 2913
Launch site
Air Force Western Test Range (AFWTR)
Object type
Payload
Rocket body
Debris
Shape & HBR
Unknown
Radar Cross Section
Medium (>0.1 m² and <1 m²)

Expand to show TLE details & history
Last TLE update: 1 day ago

TLE from 1 day ago
0 LAGEOS 1
1 08820U 76039A   26123.13571654  .00000006  00000-0  00000-0 0  9995
2 08820 109.8055 163.9207 0044675 311.9216  54.0105  6.38664781910267
Epoch: 2026-05-03T03:15Z
TLE epoch observation values (Epoch: 2026-05-03T03:15:25.909Z)
Latitude
5.92202°
Longitude
-108.11929°
Altitude
5,861.819 km
Speed
5.715 km/s
True Right ascension
10h 47m 07s
True Declination
5° 54' 05"
Sunlit
Object was in daylight at epoch
Visualization orbit readout
Latitude
Unknown
Longitude
Unknown
Altitude
Unknown
Speed
Unknown
Apparent Right ascension
Unknown
Apparent Declination
Unknown
Sunlit
N/A
Visualization observer readout
Local Sidereal Time
14:20:05
Azimuth
Unknown
Elevation
Unknown
Doppler factor
Unknown
Orbital elements
Apogee altitude
5,946.696 km
Perigee altitude
5,837.064 km
Semi-major axis
12,270.017 km
Eccentricity
0.00447
Inclination
109.8055°
RAAN
163.9207°
Arg. of periapsis
311.9216°
True anomaly
54.42608°
Mean anomaly
54.0105°
Eccentric anomaly
54.21815°
Mean motion
1.59689 °/min
Orbital period
225.44 mins
BSTAR
0
Loading maneuver chart data...
Computing Atmospheric mass density...
Loading historical data...
Loading historical data...
Loading historical data...
Loading historical data...
Loading historical data...
Loading historical data...
Loading historical data...
Other satellites on launch #39 in the year 1976 (1976-05-04 UTC)

Documentation

Showing up to 5 results
|